SKYSAT-C1

Last updated on Sat Jul 18 2026 00:02:49 GMT+0000 (Coordinated Universal Time)

1 41601U 16040C 26198.04294710 .00005058 00000+0 14290-3 0 9992 2 41601 96.9547 228.1510 0000261 236.3178 123.8043 15.36766876562450
UTC large
Height (km)
Speed (km/s)
/
Latitude / Longitude
Inclination (degrees)
Orbital Period (minutes)
Azimuth
Elevation
Range (km)
Doppler Factor

Next 0 passes for location: London (51.5072 / 0.1276)

No passes found over London.
SKYSAT-C1